User: anonymous   Login
Location: Unspecified
(0.0000°N, 0.0000°E)
Time: 09:20:56
(UTC+00:00)
Language:

PCSat - Orbit

View from above orbital plane
View from above orbital plane
View from above satellite
View from above satellite

Ground track
Ground track

The orbit data is extracted from the following two-line orbital elements,

1 26931U 01043C   17323.60491212 +.00000013 +00000-0 +36863-4 0  9994
2 26931 067.0527 050.1897 0005314 263.6440 096.4056 14.30483606842502
Epoch (UTC): 19 November 2017 14:31:04
Eccentricity: 0.0005314
inclination: 67.0527°
perigee height: 786 km
apogee height: 794 km
right ascension of ascending node: 50.1897°
argument of perigee: 263.6440°
revolutions per day: 14.30483606
mean anomaly at epoch: 96.4056°
orbit number at epoch: 84250

The dashed part of the orbit path shows where the satellite is in the earth's shadow,  

DLR